Skip Page Navigation
NASA JPL Caltech
NASA Logo - Jet Propulsion Laboratory + View the NASA Portal
+ Center for Near-Earth Object Studies
JPL Home Earth Solar System Stars & Galaxies Technology
JPL Solar System Dynamics
BODIES ORBITS EPHEMERIDES TOOLS PHYSICAL DATA DISCOVERY FAQ SITE MAP
IMPORTANT: The SSD Announcement email list is now available. Major changes are coming in the near future, including possible hostname and/or URL changes. To be notified of such changes, subscribe to this email list.

Please visit this page for more details.


JPL Small-Body Database Browser
Search: [ help ]  
35968 (1999 LK14)
Classification: Main-belt Asteroid          SPK-ID: 2035968
Ephemeris | Orbit Diagram | Orbital Elements | Mission Design | Physical Parameters | Discovery Circumstances | Close-Approach Data ]

[ show orbit diagram ]
Orbital Elements at Epoch 2458600.5 (2019-Apr-27.0) TDB
Reference: JPL 18 (heliocentric ecliptic J2000)
 Element Value Uncertainty (1-sigma)   Units 
e .2481836875912033 6.5013e-08  
a 2.537703152396228 1.169e-08 au
q 1.90788662602271 1.6897e-07 au
i 4.862950239949984 3.994e-06 deg
node 171.310651670199 6.8751e-05 deg
peri 108.6796985638685 6.9795e-05 deg
M 320.3581585795068 1.2958e-05 deg
tp 2458763.096418333093
(2019-Oct-06.59641833)
5.3622e-05 TDB
period 1476.589091284078
4.04
1.0203e-05
2.793e-08
d
yr
n .2438051331443435 1.6847e-09 deg/d
Q 3.167519678769745 1.4592e-08 au
  Orbit Determination Parameters
   # obs. used (total)      1164  
   data-arc span      9764 days (26.73 yr)  
   first obs. used      1992-12-24  
   last obs. used      2019-09-18  
   planetary ephem.      DE431  
   SB-pert. ephem.      SB431-N16  
   condition code      0  
   norm. resid. RMS      .49576  
   source      ORB  
   producer      Otto Matic  
   solution date      2019-Sep-24 01:56:18  

Additional Information
 Earth MOID = .897809 au 
 Jupiter MOID = 2.00736 au 
 T_jup = 3.399 
[ show covariance matrix ]

Ephemeris | Orbit Diagram | Orbital Elements | Mission Design | Physical Parameters | Discovery Circumstances | Close-Approach Data ]

Physical Parameter Table
Parameter Symbol Value Units Sigma Reference Notes
absolute magnitude H 14.6   n/a MPO436017  

35968 (1999 LK14)          Discovered 1999-Jun-09 by LINEAR at Socorro
Reference: 20020227/Numbers.arcLast Updated: 2004-04-19

[ show close-approach data ]
Alternate Designations
 1999 LK14 = 1999 NK45 
Ephemeris | Orbit Diagram | Orbital Elements | Mission Design | Physical Parameters | Discovery Circumstances | Close-Approach Data ]
ABOUT SSD CREDITS/AWARDS PRIVACY/COPYRIGHT GLOSSARY LINKS
FirstGov
(server date/time)  
NASA Home Page
Site Manager:   Ryan S. Park
Webmaster  Alan B. Chamberlin